Location: Chippewa Lake
(41.0698°N, 81.9010°W)
Time: 21:11:21
(UTC+00:00)

Terra - Pass Details

Date: 09 May 2021
Orbit: 701 x 703 km, 98.2° (Epoch: 17 June)

Event Time Altitude Azimuth Distance (km) Brightness Sun altitude
Exits shadow 01:58:44 11° 83° (E) 2,077 3.9 -14.7°
Maximum altitude 02:00:22 13° 61° (ENE) 1,958 3.9 -14.9°
Drops below altitude 10° 02:02:34 10° 33° (NNE) 2,178 4.4 -15.2°
Sets 02:05:58 0° 8° (N) 3,102 5.6 -15.7°
